Tucumcari, NM

12:42 PM MDT on September 20, 2017 (GMT -0600)
Tucumcari Municipal

Weather History for KTCC - July, 2013

Change the Weather History Date:

Monday, July 22, 2013

  Actual Average Record
Temperature  
Mean Temperature 84 °F -  
Max Temperature 97 °F 92 °F 105 °F (1951)
Min Temperature 70 °F 65 °F 57 °F (1973)
Cooling Degree Days 18    
Growing Degree Days 34 (Base 50)    
Moisture  
Dew Point 56 °F    
Average Humidity 42    
Maximum Humidity 68    
Minimum Humidity 19    
Precipitation  
Precipitation 0.00 in - - ()
Sea Level Pressure  
Sea Level Pressure 29.77 in    
Wind  
Wind Speed 10 mph (SSW)    
Max Wind Speed 16 mph    
Max Gust Speed 22 mph    
Visibility 10 miles    
Events      
Averages and records for this station are not official NWS values.
T = Trace of Precipitation, MM = Missing Value Source: NWS Daily Summary

Daily Weather History Graph

Daily Weather History Graph

Search for Another Location

Airport or City:

Trip Planner

Search our weather history database for the weather conditions in past years. The results will help you decide how hot, cold, wet, or windy it might be!

Date:

Astronomy

Jul. 22, 2013 Rise Set
Actual Time 5:56 AM MDT 8:05 PM MDT
Civil Twilight 5:27 AM MDT 8:33 PM MDT
Nautical Twilight 4:52 AM MDT 9:08 PM MDT
Astronomical Twilight 4:15 AM MDT 9:45 PM MDT
Moon 7:56 PM MDT (7/22) 5:53 AM MDT (7/22)
Length of Visible Light 15h 05m
Length of Day
14h 08m
Full, 100% of the Moon is Illuminated
Jul 22
Full
Jul 22
Full
Jul 29
Last Quarter
Aug 6
New
Aug 14
First Quarter

Hourly Weather History & Observations

Time (MDT) Temp. Heat Index Dew Point Humidity Pressure Visibility Wind Dir Wind Speed Gust Speed Precip Events Conditions
12:53 AM 79.0 °F - 57.9 °F 48% 29.79 in 10.0 mi SSW 13.8 mph - N/A   Clear
1:53 AM 73.9 °F - 59.0 °F 59% 29.80 in 10.0 mi WSW 5.8 mph - N/A   Clear
2:53 AM 73.9 °F - 57.9 °F 57% 29.78 in 10.0 mi SW 9.2 mph - N/A   Clear
3:53 AM 71.1 °F - 59.0 °F 66% 29.78 in 10.0 mi SW 5.8 mph - N/A   Clear
4:53 AM 70.0 °F - 59.0 °F 68% 29.77 in 10.0 mi SW 8.1 mph - N/A   Clear
5:53 AM 70.0 °F - 59.0 °F 68% 29.79 in 10.0 mi SW 8.1 mph - N/A   Clear
6:53 AM 72.0 °F - 60.1 °F 66% 29.80 in 10.0 mi SW 4.6 mph - N/A   Clear
7:53 AM 77.0 °F - 62.1 °F 60% 29.81 in 10.0 mi SW 11.5 mph - N/A   Clear
8:53 AM 81.0 °F 82.2 °F 63.0 °F 54% 29.81 in 10.0 mi WSW 11.5 mph - N/A   Clear
9:53 AM 84.9 °F 85.9 °F 63.0 °F 48% 29.81 in 10.0 mi SSW 11.5 mph - N/A   Clear
10:53 AM 88.0 °F 86.9 °F 57.9 °F 36% 29.79 in 10.0 mi SW 11.5 mph - N/A   Clear
11:53 AM 91.0 °F 88.9 °F 55.0 °F 29% 29.78 in 10.0 mi SSE 11.5 mph 20.7 mph N/A   Clear
12:53 PM 93.9 °F 91.7 °F 54.0 °F 26% 29.76 in 10.0 mi SSW 12.7 mph 21.9 mph N/A   Clear
1:53 PM 95.0 °F 92.5 °F 53.1 °F 24% 29.75 in 10.0 mi South 16.1 mph 20.7 mph N/A   Clear
2:53 PM 96.1 °F - 51.1 °F 22% 29.74 in 10.0 mi South 6.9 mph - N/A   Clear
3:53 PM 97.0 °F - 50.0 °F 20% 29.72 in 10.0 mi Variable 6.9 mph - N/A   Clear
4:53 PM 97.0 °F - 48.9 °F 19% 29.71 in 10.0 mi Variable 4.6 mph - N/A   Clear
5:53 PM 96.1 °F - 46.9 °F 19% 29.70 in 10.0 mi South 5.8 mph - N/A   Clear
6:53 PM 95.0 °F - 48.9 °F 21% 29.70 in 10.0 mi South 10.4 mph - N/A   Clear
7:53 PM 90.0 °F 87.9 °F 55.0 °F 30% 29.71 in 10.0 mi SSE 15.0 mph - N/A   Clear
8:53 PM 87.1 °F 85.3 °F 55.0 °F 33% 29.74 in 10.0 mi SSE 12.7 mph - N/A   Clear
9:53 PM 84.0 °F 83.0 °F 55.9 °F 38% 29.77 in 10.0 mi South 11.5 mph - N/A   Clear
10:53 PM 82.0 °F 82.0 °F 57.9 °F 44% 29.78 in 10.0 mi South 11.5 mph - N/A   Clear
11:53 PM 81.0 °F 81.0 °F 57.0 °F 44% 29.79 in 10.0 mi South 11.5 mph - N/A   Clear